Cape Cod CGAS, MA

4:56 AM EDT on July 23, 2017 (GMT -0400)
Cape Cod Coast Guard Air Station

Weather History for KFMH - May, 2013

Change the Weather History Date:

Sunday, May 26, 2013

  Actual Average Record
Temperature  
Mean Temperature 49 °F -  
Max Temperature 57 °F 64 °F 84 °F (2007)
Min Temperature 41 °F 47 °F 41 °F (2013)
Degree Days  
Heating Degree Days 16    
Moisture  
Dew Point 38 °F    
Average Humidity 66    
Maximum Humidity 93    
Minimum Humidity 44    
Precipitation  
Precipitation 0.00 in - - ()
Sea Level Pressure  
Sea Level Pressure 29.88 in    
Wind  
Wind Speed 15 mph (WNW)    
Max Wind Speed 21 mph    
Max Gust Speed 31 mph    
Visibility 10 miles    
Events Rain    
Averages and records for this station are not official NWS values.
T = Trace of Precipitation, MM = Missing Value Source: NWS Daily Summary

Daily Weather History Graph

Daily Weather History Graph

Search for Another Location

Airport or City:

Trip Planner

Search our weather history database for the weather conditions in past years. The results will help you decide how hot, cold, wet, or windy it might be!

Date:

Astronomy

May. 26, 2013 Rise Set
Actual Time 5:13 AM EDT 8:05 PM EDT
Civil Twilight 4:40 AM EDT 8:38 PM EDT
Nautical Twilight 3:59 AM EDT 9:20 PM EDT
Astronomical Twilight 3:11 AM EDT 10:08 PM EDT
Moon 9:49 PM EDT (5/26) 6:39 AM EDT (5/26)
Length of Visible Light 15h 57m
Length of Day
14h 52m
Waning Gibbous, 97% of the Moon is Illuminated
May 26
Waning Gibbous
May 31
Last Quarter
Jun 8
New
Jun 16
First Quarter
Jun 23
Full

Hourly Weather History & Observations

Time (EDT) Temp. Windchill Dew Point Humidity Pressure Visibility Wind Dir Wind Speed Gust Speed Precip Events Conditions
12:15 AM 41.0 °F 33.5 °F 39.2 °F 93% 29.75 in 10.0 mi WNW 13.8 mph 18.4 mph N/A   Overcast
12:35 AM 41.0 °F 34.3 °F 39.2 °F 93% 29.75 in 10.0 mi WNW 11.5 mph 18.4 mph N/A   Overcast
12:55 AM 41.0 °F 33.9 °F 37.4 °F 87% 29.75 in 10.0 mi WNW 12.7 mph 20.7 mph N/A   Overcast
1:15 AM 41.0 °F 33.1 °F 37.4 °F 87% 29.75 in 10.0 mi WNW 15.0 mph 25.3 mph N/A   Overcast
1:35 AM 41.0 °F 32.8 °F 37.4 °F 87% 29.74 in 10.0 mi WNW 16.1 mph 21.9 mph N/A   Overcast
1:55 AM 41.0 °F 32.8 °F 37.4 °F 87% 29.75 in 10.0 mi WNW 16.1 mph 23.0 mph N/A   Overcast
2:15 AM 41.0 °F 33.9 °F 39.2 °F 93% 29.75 in 10.0 mi West 12.7 mph - N/A Rain Light Rain
2:35 AM 41.0 °F 32.2 °F 37.4 °F 87% 29.74 in 10.0 mi West 18.4 mph 24.2 mph N/A Rain Light Rain
2:55 AM 41.0 °F 34.3 °F 37.4 °F 87% 29.74 in 10.0 mi West 11.5 mph 17.3 mph N/A Rain Light Rain
3:15 AM 41.0 °F 33.1 °F 37.4 °F 87% 29.74 in 10.0 mi West 15.0 mph 20.7 mph N/A   Overcast
3:35 AM 41.0 °F 32.8 °F 37.4 °F 87% 29.73 in 10.0 mi West 16.1 mph 26.5 mph N/A   Overcast
3:55 AM 41.0 °F 32.5 °F 37.4 °F 87% 29.74 in 10.0 mi WNW 17.3 mph 24.2 mph N/A   Overcast
4:15 AM 41.0 °F 32.8 °F 35.6 °F 81% 29.74 in 10.0 mi WNW 16.1 mph 25.3 mph N/A   Overcast
4:35 AM 41.0 °F 33.9 °F 35.6 °F 81% 29.75 in 10.0 mi WNW 12.7 mph 23.0 mph N/A   Overcast
4:55 AM 41.0 °F 32.8 °F 37.4 °F 87% 29.75 in 10.0 mi WNW 16.1 mph 23.0 mph N/A Rain Light Rain
5:15 AM 41.0 °F 33.5 °F 37.4 °F 87% 29.75 in 10.0 mi WNW 13.8 mph 25.3 mph N/A   Overcast
5:35 AM 41.0 °F 32.8 °F 37.4 °F 87% 29.76 in 10.0 mi West 16.1 mph 24.2 mph N/A   Overcast
5:55 AM 41.0 °F 32.8 °F 37.4 °F 87% 29.76 in 10.0 mi WNW 16.1 mph 20.7 mph N/A   Overcast
6:15 AM 41.0 °F 31.9 °F 37.4 °F 87% 29.77 in 10.0 mi WNW 19.6 mph 25.3 mph N/A   Overcast
6:35 AM 42.8 °F 34.0 °F 37.4 °F 81% 29.77 in 10.0 mi West 20.7 mph 27.6 mph N/A   Overcast
6:55 AM 42.8 °F 34.8 °F 37.4 °F 81% 29.78 in 10.0 mi West 17.3 mph 24.2 mph N/A   Overcast
7:15 AM 44.6 °F 37.8 °F 37.4 °F 76% 29.78 in 10.0 mi West 15.0 mph 24.2 mph N/A   Overcast
7:35 AM 44.6 °F 37.8 °F 37.4 °F 76% 29.79 in 10.0 mi WNW 15.0 mph 25.3 mph N/A   Overcast
7:55 AM 44.6 °F 36.6 °F 37.4 °F 76% 29.79 in 10.0 mi West 19.6 mph 25.3 mph N/A   Overcast
8:15 AM 44.6 °F 37.4 °F 37.4 °F 76% 29.80 in 10.0 mi WNW 16.1 mph 26.5 mph N/A   Overcast
8:35 AM 44.6 °F 37.2 °F 37.4 °F 76% 29.80 in 10.0 mi West 17.3 mph 23.0 mph N/A   Overcast
8:55 AM 46.4 °F 39.8 °F 37.4 °F 71% 29.81 in 10.0 mi WNW 16.1 mph 21.9 mph N/A   Overcast
9:15 AM 46.4 °F 40.4 °F 37.4 °F 71% 29.82 in 10.0 mi WNW 13.8 mph 23.0 mph N/A   Overcast
9:35 AM 48.2 °F - 37.4 °F 66% 29.82 in 10.0 mi WNW 15.0 mph 24.2 mph N/A   Overcast
9:55 AM 48.2 °F - 37.4 °F 66% 29.83 in 10.0 mi NW 13.8 mph 25.3 mph N/A   Overcast
10:15 AM 48.2 °F - 37.4 °F 66% 29.83 in 10.0 mi WNW 13.8 mph 24.2 mph N/A   Overcast
10:35 AM 48.2 °F - 37.4 °F 66% 29.84 in 10.0 mi WNW 18.4 mph 25.3 mph N/A   Overcast
10:55 AM 48.2 °F - 37.4 °F 66% 29.85 in 10.0 mi WNW 17.3 mph 23.0 mph N/A   Overcast
11:15 AM 50.0 °F - 37.4 °F 62% 29.85 in 10.0 mi WNW 16.1 mph 25.3 mph N/A   Overcast
11:35 AM 50.0 °F - 37.4 °F 62% 29.86 in 10.0 mi WNW 10.4 mph 16.1 mph N/A   Overcast
11:55 AM 50.0 °F - 39.2 °F 66% 29.86 in 10.0 mi West 16.1 mph 21.9 mph N/A   Overcast
12:15 PM 53.6 °F - 39.2 °F 58% 29.87 in 10.0 mi WNW 19.6 mph 23.0 mph N/A   Overcast
12:35 PM 55.4 °F - 39.2 °F 54% 29.87 in 10.0 mi WNW 17.3 mph 21.9 mph N/A   Overcast
12:55 PM 55.4 °F - 39.2 °F 54% 29.87 in 10.0 mi WNW 12.7 mph 21.9 mph N/A   Overcast
1:15 PM 55.4 °F - 39.2 °F 54% 29.87 in 10.0 mi WNW 16.1 mph 26.5 mph N/A   Mostly Cloudy
1:35 PM 55.4 °F - 37.4 °F 51% 29.87 in 10.0 mi NW 13.8 mph 24.2 mph N/A   Overcast
1:55 PM 55.4 °F - 37.4 °F 51% 29.88 in 10.0 mi WNW 17.3 mph 20.7 mph N/A   Overcast
2:15 PM 55.4 °F - 37.4 °F 51% 29.88 in 10.0 mi WNW 17.3 mph 20.7 mph N/A   Overcast
2:35 PM 55.4 °F - 39.2 °F 54% 29.88 in 10.0 mi WNW 16.1 mph 21.9 mph N/A   Overcast
2:55 PM 55.4 °F - 37.4 °F 51% 29.88 in 10.0 mi WNW 16.1 mph 26.5 mph N/A   Overcast
3:15 PM 57.2 °F - 37.4 °F 48% 29.89 in 10.0 mi West 16.1 mph 27.6 mph N/A   Mostly Cloudy
3:35 PM 57.2 °F - 37.4 °F 48% 29.90 in 10.0 mi NW 17.3 mph 20.7 mph N/A   Mostly Cloudy
3:55 PM 55.4 °F - 35.6 °F 47% 29.90 in 10.0 mi NW 13.8 mph 25.3 mph N/A   Overcast
4:15 PM 57.2 °F - 37.4 °F 48% 29.91 in 10.0 mi WNW 15.0 mph 24.2 mph N/A   Overcast
4:35 PM 57.2 °F - 35.6 °F 44% 29.92 in 10.0 mi WNW 18.4 mph 25.3 mph N/A   Mostly Cloudy
4:55 PM 57.2 °F - 35.6 °F 44% 29.93 in 10.0 mi NW 16.1 mph 31.1 mph N/A   Mostly Cloudy
5:15 PM 57.2 °F - 37.4 °F 48% 29.94 in 10.0 mi WNW 12.7 mph 19.6 mph N/A   Mostly Cloudy
5:35 PM 57.2 °F - 35.6 °F 44% 29.94 in 10.0 mi NW 12.7 mph 26.5 mph N/A   Mostly Cloudy
5:55 PM 57.2 °F - 35.6 °F 44% 29.95 in 10.0 mi NW 12.7 mph 23.0 mph N/A   Overcast
6:15 PM 55.4 °F - 35.6 °F 47% 29.96 in 10.0 mi NW 11.5 mph 19.6 mph N/A   Overcast
6:35 PM 55.4 °F - 39.2 °F 54% 29.98 in 10.0 mi WNW 10.4 mph 20.7 mph N/A   Overcast
6:55 PM 55.4 °F - 37.4 °F 51% 29.99 in 10.0 mi NW 10.4 mph 17.3 mph N/A   Overcast
7:15 PM 55.4 °F - 35.6 °F 47% 30.00 in 10.0 mi WNW 15.0 mph 23.0 mph N/A   Mostly Cloudy
7:35 PM 55.4 °F - 37.4 °F 51% 30.00 in 10.0 mi NW 10.4 mph 17.3 mph N/A   Mostly Cloudy
7:55 PM 53.6 °F - 37.4 °F 54% 30.02 in 10.0 mi WNW 10.4 mph 21.9 mph N/A   Overcast
8:15 PM 53.6 °F - 37.4 °F 54% 30.02 in 10.0 mi NW 8.1 mph 16.1 mph N/A   Mostly Cloudy
8:35 PM 51.8 °F - 37.4 °F 58% 30.03 in 10.0 mi NW 6.9 mph - N/A   Partly Cloudy
8:55 PM 50.0 °F - 37.4 °F 62% 30.05 in 10.0 mi NW 6.9 mph - N/A   Scattered Clouds
9:15 PM 50.0 °F - 37.4 °F 62% 30.06 in 10.0 mi WNW 9.2 mph - N/A   Partly Cloudy
9:35 PM 50.0 °F - 37.4 °F 62% 30.07 in 10.0 mi WNW 15.0 mph 20.7 mph N/A   Clear
9:55 PM 50.0 °F - 37.4 °F 62% 30.08 in 10.0 mi WNW 13.8 mph 24.2 mph N/A   Clear
10:15 PM 50.0 °F - 37.4 °F 62% 30.08 in 10.0 mi WNW 10.4 mph - N/A   Clear
10:35 PM 48.2 °F - 37.4 °F 66% 30.08 in 10.0 mi WNW 11.5 mph 16.1 mph N/A   Clear
10:55 PM 48.2 °F - 39.2 °F 71% 30.09 in 10.0 mi WNW 11.5 mph - N/A   Clear
11:15 PM 48.2 °F - 37.4 °F 66% 30.09 in 10.0 mi West 11.5 mph - N/A   Clear
11:35 PM 48.2 °F - 37.4 °F 66% 30.10 in 10.0 mi WNW 11.5 mph 17.3 mph N/A   Clear
11:55 PM 48.2 °F - 37.4 °F 66% 30.11 in 10.0 mi WNW 11.5 mph 17.3 mph N/A   Clear